Preview of NWS' New Version of Forecast
This preview is not operational and should not be used for support decisions.

Regional Weather Roundup (RWR)

Issued by National Weather Service (NWS)

                            
000
ASUS43 KBIS 200602
RWRND 

NORTH DAKOTA REGIONAL WEATHER ROUNDUP
NATIONAL WEATHER SERVICE BISMARCK ND
100 AM CDT TUE AUG 20 2019

NOTE: "FAIR" INDICATES FEW OR NO CLOUDS BELOW 12,000 FEET WITH NO
SIGNIFICANT WEATHER AND/OR OBSTRUCTIONS TO VISIBILITY.


NDZ001>003-009>011-017-200700-
NORTHWEST NORTH DAKOTA
  
CITY           SKY/WX    TMP DP  RH WIND       PRES   REMARKS
WILLISTON      CLEAR     68  56  65 N18       29.92R                  
6HR MIN TEMP:  68; 6HR MAX TEMP:  91;                                

MINOT          CLEAR     72  60  66 SW10      29.80R                  
MINOT AFB      CLEAR     64  58  82 NW14      29.80R                  
$$
 
NDZ018>021-031>035-040>046-200700-
SOUTHWEST NORTH DAKOTA
  
CITY           SKY/WX    TMP DP  RH WIND       PRES   REMARKS
BISMARCK       CLEAR     74  70  87 SW6       29.84S                  
6HR MIN TEMP:  73; 6HR MAX TEMP:  82;                                

DICKINSON      CLEAR     61  51  70 W6        29.90S                  
GARRISON         N/A     67  63  87 W7        29.83R                  
6HR MIN TEMP:  67; 6HR MAX TEMP:  83;                                

HETTINGER ARPT CLEAR     57  55  93 W5        29.95R                  
$$
 
NDZ004>008-012>016-024-026-027-054-200700-
NORTHEAST NORTH DAKOTA
  
CITY           SKY/WX    TMP DP  RH WIND       PRES   REMARKS
GRAND FORKS    CLEAR     67  61  81 S6        29.80F                  
GRND FRKS AFB  PTCLDY    67  65  95 S7        29.80F                  
DEVILS LAKE    TSTM      60  58  92 NE9       29.87R                  
$$
 
NDZ022-023-025-028>030-036>039-047>053-200700-
SOUTHEAST NORTH DAKOTA
  
CITY           SKY/WX    TMP DP  RH WIND       PRES   REMARKS
FARGO          CLEAR     72  67  84 S10       29.84F                  
6HR MIN TEMP:  72; 6HR MAX TEMP:  83;                                

JAMESTOWN      MOCLDY    71  70  96 S8        29.85R                  
$$